FW5376 Weather Reports


Display with metric or nautical units.
time (UTC)temp
F
wind
direction
speed
MPH
gust
MPH
rain 1hr
in
rain 24hr
in
rain mn
in
humidity
%
barometer
mb
20260507094043 51 0.0 0.0 0.00 0.00 0.00 64 1020.7
20260507093041 51 0.0 1.0 0.00 0.00 0.00 64 1020.7
20260507092022 51 0.0 1.0 0.00 0.00 0.00 64 1020.7
20260507091021 51 0.0 0.0 0.00 0.00 0.00 63 1020.7
20260507090021 51 0.0 0.0 0.00 0.00 0.00 63 1020.6
20260507085021 51 0.0 0.0 0.00 0.00 0.00 63 1020.6
20260507084021 52 0.0 1.0 0.00 0.00 0.00 64 1020.5
20260507083022 52 203 1.0 3.0 0.00 0.00 0.00 64 1020.5
20260507082102 52 180 1.0 2.0 0.00 0.00 0.00 64 1020.5
20260507081029 52 180 2.0 5.0 0.00 0.00 0.00 64 1020.5
20260507080021 52 180 1.0 4.0 0.00 0.00 0.00 64 1020.6
20260507075022 52 203 1.0 3.0 0.00 0.00 0.00 65 1020.6
20260507074021 52 180 3.0 6.0 0.00 0.00 0.00 65 1020.5
20260507073021 52 180 1.0 2.0 0.00 0.00 0.00 65 1020.5
20260507072022 52 180 1.0 4.0 0.00 0.00 0.00 65 1020.5
20260507071021 52 203 1.0 5.0 0.00 0.00 0.00 65 1020.4
20260507070021 52 203 1.0 2.0 0.00 0.00 0.00 65 1020.5
20260507065023 53 180 1.0 3.0 0.00 0.00 0.00 65 1020.5
20260507064042 53 180 1.0 2.0 0.00 0.00 0.00 65 1020.5
20260507063020 53 203 1.0 4.0 0.00 0.00 0.00 65 1020.5
20260507062020 53 203 1.0 2.0 0.00 0.00 0.00 65 1020.6
20260507061020 53 0.0 2.0 0.00 0.00 0.00 65 1020.7
20260507060021 53 203 1.0 4.0 0.00 0.00 0.00 65 1020.6
20260507055021 53 0.0 2.0 0.00 0.00 0.00 65 1020.5
20260507054020 53 0.0 2.0 0.00 0.00 0.00 65 1020.7
20260507053041 54 0.0 2.0 0.00 0.00 0.00 65 1020.6
20260507052020 54 203 1.0 5.0 0.00 0.00 0.00 64 1020.6
20260507051453 54 0.0 2.0 0.00 0.00 0.00 64 1020.6
20260507050041 54 0.0 5.0 0.00 0.00 0.00 64 1020.6
20260507045020 54 203 1.0 4.0 0.00 0.00 0.00 64 1020.6
20260507044020 55 180 1.0 5.0 0.00 0.00 0.00 63 1020.7
20260507043020 55 0.0 3.0 0.00 0.00 0.00 63 1020.5
20260507042034 55 203 1.0 2.0 0.00 0.00 0.00 63 1020.4
20260507041040 55 203 1.0 3.0 0.00 0.00 0.00 62 1020.4
20260507040020 55 225 1.0 2.0 0.00 0.00 0.00 62 1020.5
20260507035100 55 0.0 2.0 0.00 0.00 0.00 62 1020.4
20260507034040 56 248 1.0 4.0 0.00 0.00 0.00 61 1020.3
20260507033020 56 180 1.0 5.0 0.00 0.00 0.00 61 1020.3
20260507032020 56 225 1.0 3.0 0.00 0.00 0.00 60 1020.2
20260507031021 56 203 2.0 4.0 0.00 0.00 0.00 60 1020.2
20260507030020 56 203 1.0 3.0 0.00 0.00 0.00 59 1020.0
20260507025020 57 180 1.0 3.0 0.00 0.00 0.00 59 1020.1
20260507024020 57 198 3.0 0.0 0.00 0.00 0.00 58 1020.1
20260507023933 57 203 2.0 6.0 0.00 0.00 0.00 58 1019.7